Volver al catálogo

NIMBUS 2 DEB

ActivoSSO
NORAD 40647·DEBRIS·🇺🇸 United States

Lanzado May 15, 1966 desde Vandenberg Space Force Base

Loading…

Próximos Pases (próximas 24 horas)

TLE

ActualizadoSource: Space-Track

Época: Sep 13, 2026, 23:33 UTC

1 40647U 66040BL  26256.98127601  .00001604  00000-0  27364-2 0  9997
2 40647 100.2769  91.5882 0039002 290.2007  69.4931 13.46353877554402

Sigue NIMBUS 2 DEB en tiempo real con AllMySat

Download on the App Store